Terminal Aerodrome Forecast
Issued by NWS

Home | Current Version | Previous Version | Text Only | Print | Product List | Glossary On
Versions: 1 2 3 4 5 6 7 8 9 10 11 12 13 14 15 16
080
FTUS43 KDLH 081733
TAFBRD
TAF
KBRD 081733Z 0818/0918 33016G25KT 6SM -SN BLSN BKN025 OVC035
      TEMPO 0818/0820 2SM -SN BLSN SCT025 OVC035
     FM082200 33014G21KT P6SM BKN030
     FM090600 33012G19KT P6SM SCT030
     FM091500 34010KT P6SM SCT025=

USA.gov is the U.S. government's official web portal to all federal, state and local government web resources and services.